#timestamp,LO_Frequency,Hit,StdDev 
1549861215.3,286047003.1,P
1549861235.2,286047001.5,P
1549861255.9,286047006.7,P
1549861275.7,286047002.6,N
1549861295.6,286047004.9,N
1549861315.4,286047009.0,Y
1549861335.2,286047001.5,P
1549861355.1,286047005.6,P
1549861356.0,286047005.6,P
1549861375.8,286046999.9,N
1549861395.7,286046999.3,N
1549861415.5,286047007.5,N
1549861435.3,286047009.7,Y
1549861456.1,286046999.8,P
1549861475.0,286047002.4,N
1549861476.0,286047002.4,N
1549861495.8,286047001.3,N
1549861515.6,286047004.2,Y
1549861535.5,286047001.0,P
1549861555.3,286047000.3,N
1549861575.1,286046993.3,P
1549861595.9,286046990.1,N
1549861615.7,286046987.4,N
1549861635.6,286046988.6,N
1549861655.4,286046996.5,N
1549861675.2,286046996.9,N
1549861695.1,286046993.4,N
1549861696.0,286046993.4,N
1549861715.8,286046988.2,N
1549861735.7,286046990.3,N
1549861755.5,286046993.1,N
1549861775.3,286046991.0,N
1549861795.2,286046988.2,N
1549861815.0,286046996.7,N
1549861815.9,286046996.7,N
1549861835.8,286047000.2,N
1549861855.6,286046996.6,N
1549861875.4,286047002.4,N
1549861895.3,286046997.7,N
1549861945.1,286046996.0,E
1549861955.1,286046996.8,N
1549861956.0,286046996.8,P
1549861975.8,286047000.8,P
1549861995.6,286047002.8,N
1549862015.5,286046998.4,N
1549862035.3,286047001.6,N
1549862055.1,286047001.4,N
1549862075.9,286046998.1,N
1549862095.7,286046999.4,N
1549862115.6,286047003.3,N
1549862135.4,286047003.3,N
1549862155.2,286046999.7,N
1549862175.1,286047003.9,N
1549862176.0,286047003.9,N
1549862195.8,286046997.7,N
1549862215.7,286047002.4,N
1549862235.5,286047003.1,N
1549862255.3,286047003.8,N
1549862275.2,286047004.0,N
1549862295.0,286047002.3,N
1549862295.9,286047002.3,N
1549862315.8,286047006.9,N
1549862335.6,286047011.8,Y
1549862355.4,286047008.4,P
1549862375.3,286047006.9,N
1549862395.1,286047006.6,N
1549862415.9,286047008.7,Y
1549862435.7,286047002.4,P
1549862455.5,286047000.3,N
1549862475.4,286047003.0,N
1549862495.2,286047001.8,N
1549862515.0,286047003.3,N
1549862515.9,286047003.3,N
1549862535.8,286047006.9,Y
1549862555.6,286047002.6,P
1549862575.5,286046996.5,P
1549862595.3,286047002.2,N
1549862615.1,286047004.1,N
1549862635.9,286047000.3,N
1549862655.7,286046996.5,N
1549862675.6,286046994.9,N
1549862695.4,286046997.6,N
1549862715.2,286046994.9,N
1549862735.1,286046994.9,N
1549862736.0,286046994.9,N
1549862755.8,286046996.7,N
1549862775.6,286046997.2,N
1549862795.5,286046995.8,N
1549862815.3,286046996.2,N
1549862835.2,286046991.8,N
1549862855.9,286046995.0,N
1549862875.7,286046998.0,N
1549862895.6,286046994.4,N
1549862915.4,286046992.3,N
1549862935.3,286046991.8,N
1549862955.1,286046996.4,N
1549862956.0,286046996.4,N
1549862975.8,286046997.4,N
1549862995.7,286046998.5,N
1549863015.5,286047001.8,N
1549863035.3,286046999.2,N
1549863055.2,286046995.6,N
1549863075.0,286046998.0,N
1549863075.9,286046998.0,N
1549863095.8,286047001.2,N
1549863115.6,286047002.1,N
1549863135.4,286047002.9,N
1549863155.3,286047008.6,N
1549863175.1,286047006.9,N
1549863195.9,286047002.1,N
1549863215.7,286046996.1,N
1549863235.5,286046997.5,N
1549863255.4,286047001.7,N
1549863275.2,286047002.0,N
1549863295.0,286047001.3,N
1549863296.0,286047001.3,N
1549863315.8,286047005.4,N
1549863335.6,286047005.6,N
1549863355.5,286047004.7,N
1549863375.3,286047009.4,N
1549863395.1,286047000.1,N
1549863415.9,286047004.1,N
1549863435.7,286047001.8,N
1549863455.6,286047001.3,N
1549863475.4,286047006.9,N
1549863495.2,286047009.2,N
1549863515.1,286047009.0,N
1549863516.0,286047009.0,N
1549863535.8,286047002.9,N
1549863555.7,286047001.4,N
1549863575.5,286047002.6,N
1549863595.3,286047002.4,N
1549863615.2,286047003.9,N
1549863635.0,286047000.1,N
1549863635.9,286047000.1,N
1549863655.8,286047000.2,N
1549863675.6,286047001.1,N
1549863695.4,286047003.7,N
1549863715.3,286047004.7,N
1549863735.1,286047003.4,N
1549863755.8,286047005.7,N
1549863775.7,286046999.8,N
1549863795.5,286047002.1,N
1549863815.4,286046999.2,N
1549863835.2,286047000.7,N
1549863855.0,286046999.7,N
1549863855.9,286046999.7,N
1549863875.8,286046999.9,N
1549863895.6,286047001.1,N
1549863915.5,286046997.1,N
1549863935.3,286046998.8,N
1549863955.1,286046998.2,N
1549863975.9,286046993.5,N
1549863995.7,286047000.0,N
1549864015.5,286046998.8,N
1549864035.4,286047004.6,N
1549864055.2,286047001.2,N
1549864075.1,286046996.5,N
1549864076.0,286046996.5,N
1549864095.8,286047004.2,N
1549864115.6,286047008.1,N
1549864135.5,286047006.9,N
1549864155.3,286047001.7,N
1549864175.1,286047000.9,N
1549864195.9,286047002.4,N
1549864215.7,286046995.4,N
1549864235.6,286046996.9,N
1549864255.4,286046995.2,N
1549864275.2,286046999.5,N
1549864295.1,286046992.5,N
1549864296.0,286046992.5,N
1549864315.8,286046993.2,N
1549864335.7,286046994.8,N
1549864355.5,286046985.8,Y
1549864375.3,286046997.3,P
1549864395.2,286046999.5,N
1549864415.0,286047002.4,N
1549864415.9,286047002.4,N
1549864435.8,286047004.1,N
1549864455.6,286047003.2,N
1549864475.4,286047009.1,Y
1549864495.3,286046998.4,P
1549864515.1,286046999.2,N
1549864535.9,286046999.7,N
1549864555.7,286047006.0,Y
1549864575.5,286047006.7,P
1549864595.4,286047005.3,N
1549864615.2,286047003.1,N
1549864635.0,286047004.4,N
1549864636.0,286047004.4,N
1549864655.8,286047008.3,Y
1549864675.6,286047004.1,P
1549864695.5,286047002.5,P
1549864715.3,286047002.3,P
1549864735.1,286047001.5,N
1549864755.9,286047001.6,N
1549864775.7,286046993.0,Y
1549864795.6,286046991.6,P
